Simultaneous Nadir Overpasses (SNOs) Predictions

Prediction of SNOs between GOES-16 and TERRA Satellite Orbit:

Table of predicted SNOs for the next 14.0 days since TLE Epoch: 4/20/2017
Index Date Time (GOES-16) GOES-16 Lat,Lon TERRA Lat,Lon Distance(km) Time Diff (sec)
1 04/22/2017 16:28:26 0.00, -89.50 -0.07, -89.20 34.66 80
2 04/24/2017 16:16:15 0.00, -89.49 -0.69, -86.24 369.75 80
3 04/25/2017 04:37:39 -0.00, -89.46 -0.42, -91.43 223.68 80
4 04/27/2017 04:22:48 -0.00, -89.45 0.22, -88.47 111.51 80
5 04/27/2017 16:44:04 0.00, -89.47 0.87, -93.63 472.54 80
6 04/29/2017 04:10:36 -0.01, -89.44 0.80, -85.51 446.81 80
7 04/29/2017 16:31:52 0.01, -89.47 0.28, -90.67 137.13 80
8 05/01/2017 16:22:21 0.01, -89.46 -0.38, -87.72 198.53 80
9 05/02/2017 04:43:45 -0.00, -89.44 -0.72, -92.91 394.15 80
10 05/04/2017 04:31:33 0.01, -89.44 -0.11, -89.95 57.98 80




NCC Satellite Simultaneous Nadir Overpasses (SNOs) Prediction Service
